Flag for U.S.A. Weather past 2 weeks in Stamford, Connecticut, U.S.A.

Now
72 °F

Clear.


Feels Like: 76 °F
Forecast: 60 / 81 °F
Wind: 10 mph from North

Location: Westchester County Airport

Current Time: May 28, 2015 at 10:27:13 PM

Latest Report: May 28, 2015 at 9:56 PM


Visibility: 10 mi

Pressure: 30.19 "Hg

Humidity: 59%

Dew point: 57 °F

Location of StamfordLocation

Historic Weather in Stamford — Graph

°F

Stamford temperature yesterday

Maximum temperature yesterday: 80 °F (at 1:56 PM)
Minimum temperature yesterday: 62 °F (at 4:56 AM)
Average temperature yesterday: 70 °F

Past Weeks' High & Low Weather Summary

 TemperatureHumidityPressure
High83 °F (May 26, 12:56 PM)100% (May 16, 8:02 AM)30.41 "Hg (May 16, 8:02 AM)
Low42 °F (May 23, 5:56 AM)19% (May 14, 4:56 PM)29.76 "Hg (May 19, 6:56 PM)
Average63 °F66%30.13 "Hg
* Reported May 13 8:56 PM — May 28 8:56 PM, Stamford, Weather by CustomWeather, © 2015

Note: Actual official high and low records may vary slightly from our data, if they occured in-between our weather recording intervals... More about our weather records

Advertising

Stamford weather history for previous 24 hours

 ConditionsComfort  
Time TempWeatherWind HumidityBarometerVisibility
8:56 PM
Thu, May 28
71 °FSunny.5 mph87%30.17 "Hg9 mi
7:56 PM73 °FScattered clouds.3 mph81%30.14 "Hg10 mi
6:56 PM76 °FScattered clouds.7 mph72%30.14 "Hg10 mi
5:56 PM78 °FScattered clouds.7 mph69%30.10 "Hg10 mi
4:56 PM79 °FScattered clouds.13 mph69%30.10 "Hg8 mi
3:56 PM80 °FPassing clouds.8 mph67%30.10 "Hg7 mi
2:56 PM80 °FHaze.7 mph67%30.11 "Hg5 mi
1:56 PM79 °FHaze.6 mph69%30.12 "Hg5 mi
12:56 PM78 °FScattered clouds.8 mph71%30.14 "Hg5 mi
11:56 AM76 °FPartly sunny.7 mph77%30.14 "Hg5 mi
10:56 AM73 °FBroken clouds.5 mph81%30.16 "Hg3 mi
9:56 AM69 °FFog.No wind87%30.16 "Hg2 mi
8:56 AM67 °FFog.5 mph90%30.16 "Hg2 mi
7:56 AM66 °FFog.5 mph93%30.15 "Hg3 mi
6:56 AM64 °FFog.3 mph97%30.15 "Hg4 mi
5:56 AM64 °FFog.No wind97%30.14 "Hg4 mi
4:56 AM63 °FFog.No wind97%30.12 "Hg4 mi
3:56 AM62 °FFog.No wind96%30.11 "Hg2 mi
2:56 AM63 °FFog.3 mph97%30.11 "Hg3 mi
1:56 AM64 °FFog.No wind94%30.12 "Hg6 mi
12:56 AM64 °FFog.No wind90%30.12 "Hg6 mi
11:56 PM
Wed, May 27
64 °FFog.No wind94%30.13 "Hg5 mi
10:56 PM64 °FFog.6 mph97%30.14 "Hg4 mi
Weather by CustomWeather, © 2015

See weather overviewHow to use our weather pages